Time,TemperatureF,DewpointF,PressureIn,WindDirection,WindDirectionDegrees,WindSpeedMPH,WindSpeedGustMPH,Humidity,HourlyPrecipIn,Conditions,Clouds,dailyrainin,SoftwareType,DateUTC
2013-03-07 00:01:00,32.0,28.4,30.27,WNW,285,1.5,3.2,86,0.00,,,0.00,WUHU216HW,2013-03-07 06:01:00,
2013-03-07 00:06:00,32.0,28.4,30.27,NW,315,1.0,3.2,86,0.00,,,0.00,WUHU216HW,2013-03-07 06:06:00,
2013-03-07 00:11:00,32.0,28.4,30.27,NW,308,2.3,3.5,86,0.00,,,0.00,WUHU216HW,2013-03-07 06:11:00,
2013-03-07 00:16:00,32.0,28.4,30.28,NW,306,0.8,3.5,86,0.00,,,0.00,WUHU216HW,2013-03-07 06:16:00,
2013-03-07 00:21:00,31.9,28.2,30.27,WNW,293,1.9,3.2,86,0.00,,,0.00,WUHU216HW,2013-03-07 06:21:00,
2013-03-07 00:26:00,31.9,28.2,30.27,NW,315,3.0,3.2,86,0.00,,,0.00,WUHU216HW,2013-03-07 06:26:00,
2013-03-07 00:31:00,31.9,28.2,30.28,NW,321,0.7,3.0,86,0.00,,,0.00,WUHU216HW,2013-03-07 06:31:00,
2013-03-07 00:36:00,31.9,28.2,30.28,NW,315,3.0,3.7,86,0.00,,,0.00,WUHU216HW,2013-03-07 06:36:00,
2013-03-07 00:41:00,31.9,28.2,30.28,WNW,295,1.4,4.6,86,0.00,,,0.00,WUHU216HW,2013-03-07 06:41:00,
2013-03-07 00:46:00,31.9,28.2,30.28,WNW,293,1.5,4.6,86,0.00,,,0.00,WUHU216HW,2013-03-07 06:46:00,
2013-03-07 00:51:00,31.9,28.2,30.28,NNW,338,4.1,4.1,86,0.00,,,0.00,WUHU216HW,2013-03-07 06:51:00,
2013-03-07 00:56:00,31.9,28.2,30.28,NW,311,2.4,4.6,86,0.00,,,0.00,WUHU216HW,2013-03-07 06:56:00,
2013-03-07 01:01:00,31.9,28.2,30.28,NW,308,1.5,4.6,86,0.00,,,0.00,WUHU216HW,2013-03-07 07:01:00,
2013-03-07 01:06:00,31.9,28.2,30.28,NW,316,2.2,4.1,86,0.00,,,0.00,WUHU216HW,2013-03-07 07:06:00,
2013-03-07 01:11:00,31.9,28.2,30.29,NW,307,0.8,4.1,86,0.00,,,0.00,WUHU216HW,2013-03-07 07:11:00,
2013-03-07 01:16:00,31.9,28.2,30.29,WNW,298,1.9,2.4,86,0.00,,,0.00,WUHU216HW,2013-03-07 07:16:00,
2013-03-07 01:21:00,31.9,28.2,30.29,NW,310,2.1,4.3,86,0.00,,,0.00,WUHU216HW,2013-03-07 07:21:00,
2013-03-07 01:26:00,31.9,28.2,30.29,WNW,300,1.8,4.3,86,0.00,,,0.00,WUHU216HW,2013-03-07 07:26:00,
2013-03-07 01:31:00,31.9,28.2,30.29,WNW,293,3.2,3.2,86,0.00,,,0.00,WUHU216HW,2013-03-07 07:31:00,
2013-03-07 01:36:00,31.9,28.2,30.29,West,270,2.2,4.1,86,0.00,,,0.00,WUHU216HW,2013-03-07 07:36:00,
2013-03-07 01:41:00,31.9,28.2,30.29,West,270,0.5,4.1,86,0.00,,,0.00,WUHU216HW,2013-03-07 07:41:00,
2013-03-07 01:46:00,31.9,28.2,30.29,NW,315,2.2,2.6,86,0.00,,,0.00,WUHU216HW,2013-03-07 07:46:00,
2013-03-07 01:51:00,31.9,28.2,30.29,WNW,293,1.6,2.2,86,0.00,,,0.00,WUHU216HW,2013-03-07 07:51:00,
2013-03-07 01:56:00,31.9,28.2,30.30,NW,315,1.9,3.5,86,0.00,,,0.00,WUHU216HW,2013-03-07 07:56:00,
2013-03-07 02:01:00,31.9,28.2,30.30,WNW,293,1.3,3.7,86,0.00,,,0.00,WUHU216HW,2013-03-07 08:01:00,
2013-03-07 02:06:00,31.9,28.2,30.30,WNW,303,1.5,3.7,86,0.00,,,0.00,WUHU216HW,2013-03-07 08:06:00,
2013-03-07 02:11:00,32.0,28.4,30.30,NW,315,1.9,4.8,86,0.00,,,0.00,WUHU216HW,2013-03-07 08:11:00,
2013-03-07 02:16:00,32.0,28.4,30.30,NW,324,1.1,4.8,86,0.00,,,0.00,WUHU216HW,2013-03-07 08:16:00,
2013-03-07 02:21:00,32.0,28.4,30.30,NW,317,0.9,4.8,86,0.00,,,0.00,WUHU216HW,2013-03-07 08:21:00,
2013-03-07 02:26:00,32.0,28.4,30.30,West,270,1.9,4.1,86,0.00,,,0.00,WUHU216HW,2013-03-07 08:26:00,
2013-03-07 02:31:00,32.0,28.4,30.30,NW,310,1.3,2.2,86,0.00,,,0.00,WUHU216HW,2013-03-07 08:31:00,
2013-03-07 02:36:00,32.0,28.4,30.30,NW,315,1.3,3.7,86,0.00,,,0.00,WUHU216HW,2013-03-07 08:36:00,
2013-03-07 02:41:00,32.0,28.4,30.30,NW,315,0.9,3.7,86,0.00,,,0.00,WUHU216HW,2013-03-07 08:41:00,
2013-03-07 02:46:00,32.0,28.4,30.30,NW,314,2.3,4.1,86,0.00,,,0.00,WUHU216HW,2013-03-07 08:46:00,
2013-03-07 02:51:00,31.9,28.2,30.30,West,270,3.5,4.1,86,0.00,,,0.00,WUHU216HW,2013-03-07 08:51:00,
2013-03-07 02:56:00,32.0,28.4,30.31,WNW,293,0.5,4.1,86,0.00,,,0.00,WUHU216HW,2013-03-07 08:56:00,
2013-03-07 03:01:00,31.9,28.2,30.31,NW,311,2.2,4.1,86,0.00,,,0.00,WUHU216HW,2013-03-07 09:01:00,
2013-03-07 03:06:00,32.0,28.4,30.31,NW,315,2.4,3.5,86,0.00,,,0.00,WUHU216HW,2013-03-07 09:06:00,
2013-03-07 03:11:00,31.9,28.2,30.31,WNW,293,3.0,4.6,86,0.00,,,0.00,WUHU216HW,2013-03-07 09:11:00,
2013-03-07 03:16:00,32.0,28.4,30.31,NW,315,1.1,4.6,86,0.00,,,0.00,WUHU216HW,2013-03-07 09:16:00,
2013-03-07 03:21:00,32.0,28.1,30.31,NW,315,3.5,4.6,85,0.00,,,0.00,WUHU216HW,2013-03-07 09:21:00,
2013-03-07 03:26:00,32.0,28.1,30.31,NW,324,1.6,4.6,85,0.00,,,0.00,WUHU216HW,2013-03-07 09:26:00,
2013-03-07 03:31:00,32.0,28.1,30.31,WNW,293,2.2,4.3,85,0.00,,,0.00,WUHU216HW,2013-03-07 09:31:00,
2013-03-07 03:36:00,31.9,27.9,30.31,NW,322,2.5,3.5,85,0.00,,,0.00,WUHU216HW,2013-03-07 09:36:00,
2013-03-07 03:41:00,31.9,27.9,30.32,WNW,293,2.4,3.2,85,0.00,,,0.00,WUHU216HW,2013-03-07 09:41:00,
2013-03-07 03:46:00,31.9,27.9,30.32,NW,315,3.0,3.0,85,0.00,,,0.00,WUHU216HW,2013-03-07 09:46:00,
2013-03-07 03:51:00,32.0,27.8,30.32,NW,310,2.9,5.6,84,0.00,,,0.00,WUHU216HW,2013-03-07 09:51:00,
2013-03-07 03:56:00,31.9,27.9,30.32,NW,318,1.7,5.6,85,0.00,,,0.00,WUHU216HW,2013-03-07 09:56:00,
2013-03-07 04:01:00,32.0,28.1,30.32,NNW,338,1.6,3.0,85,0.00,,,0.00,WUHU216HW,2013-03-07 10:01:00,
2013-03-07 04:06:00,32.0,27.8,30.32,NW,312,1.3,4.1,84,0.00,,,0.00,WUHU216HW,2013-03-07 10:06:00,
2013-03-07 04:11:00,31.9,27.6,30.32,WNW,293,1.3,4.1,84,0.00,,,0.00,WUHU216HW,2013-03-07 10:11:00,
2013-03-07 04:16:00,31.9,27.6,30.32,NW,315,1.9,4.1,84,0.00,,,0.00,WUHU216HW,2013-03-07 10:16:00,
2013-03-07 04:21:00,31.9,27.6,30.32,WNW,299,1.0,4.8,84,0.00,,,0.00,WUHU216HW,2013-03-07 10:21:00,
2013-03-07 04:26:00,31.9,27.6,30.33,NW,313,1.9,4.8,84,0.00,,,0.00,WUHU216HW,2013-03-07 10:26:00,
2013-03-07 04:31:00,31.9,27.6,30.32,NW,315,1.2,3.2,84,0.00,,,0.00,WUHU216HW,2013-03-07 10:31:00,
2013-03-07 04:36:00,31.9,27.6,30.32,NW,317,2.0,3.0,84,0.00,,,0.00,WUHU216HW,2013-03-07 10:36:00,
2013-03-07 04:41:00,31.9,27.6,30.32,NW,319,0.7,3.0,84,0.00,,,0.00,WUHU216HW,2013-03-07 10:41:00,
2013-03-07 04:46:00,31.9,27.6,30.32,NW,313,2.1,3.0,84,0.00,,,0.00,WUHU216HW,2013-03-07 10:46:00,
2013-03-07 04:51:00,31.9,27.6,30.32,NW,315,3.0,3.0,84,0.00,,,0.00,WUHU216HW,2013-03-07 10:51:00,
2013-03-07 04:57:00,31.9,27.6,30.32,NW,314,1.8,4.1,84,0.00,,,0.00,WUHU216HW,2013-03-07 10:57:00,
2013-03-07 05:02:00,31.7,27.5,30.32,NW,315,3.0,3.2,84,0.00,,,0.00,WUHU216HW,2013-03-07 11:02:00,
2013-03-07 05:07:00,31.7,27.5,30.32,NW,311,1.3,3.0,84,0.00,,,0.00,WUHU216HW,2013-03-07 11:07:00,
2013-03-07 05:12:00,31.7,27.5,30.32,NW,318,1.7,3.0,84,0.00,,,0.00,WUHU216HW,2013-03-07 11:12:00,
2013-03-07 05:17:00,31.7,27.5,30.32,NW,320,2.5,3.7,84,0.00,,,0.00,WUHU216HW,2013-03-07 11:17:00,
2013-03-07 05:22:00,31.7,27.5,30.32,NW,315,1.6,3.7,84,0.00,,,0.00,WUHU216HW,2013-03-07 11:22:00,
2013-03-07 05:27:00,31.7,27.5,30.32,WNW,293,1.3,3.7,84,0.00,,,0.00,WUHU216HW,2013-03-07 11:27:00,
2013-03-07 05:32:00,31.7,27.2,30.32,NW,306,1.5,3.7,83,0.00,,,0.00,WUHU216HW,2013-03-07 11:32:00,
2013-03-07 05:37:00,31.7,27.2,30.32,NNW,342,1.0,2.6,83,0.00,,,0.00,WUHU216HW,2013-03-07 11:37:00,
2013-03-07 05:42:00,31.7,27.5,30.33,WNW,293,1.3,2.4,84,0.00,,,0.00,WUHU216HW,2013-03-07 11:42:00,
2013-03-07 05:47:00,31.7,27.5,30.33,NW,315,2.4,3.0,84,0.00,,,0.00,WUHU216HW,2013-03-07 11:47:00,
2013-03-07 05:52:00,31.5,27.3,30.33,NW,315,1.3,3.0,84,0.00,,,0.00,WUHU216HW,2013-03-07 11:52:00,
2013-03-07 05:57:00,31.5,27.3,30.33,NW,314,0.8,2.4,84,0.00,,,0.00,WUHU216HW,2013-03-07 11:57:00,
2013-03-07 06:02:00,31.5,27.3,30.33,NW,315,1.6,1.6,84,0.00,,,0.00,WUHU216HW,2013-03-07 12:02:00,
2013-03-07 06:07:00,31.5,27.3,30.34,NW,315,1.3,3.7,84,0.00,,,0.00,WUHU216HW,2013-03-07 12:07:00,
2013-03-07 06:12:00,31.5,27.3,30.33,NW,315,0.5,3.7,84,0.00,,,0.00,WUHU216HW,2013-03-07 12:12:00,
2013-03-07 06:17:00,31.5,27.3,30.34,NW,315,0.5,2.2,84,0.00,,,0.00,WUHU216HW,2013-03-07 12:17:00,
2013-03-07 06:22:00,31.5,27.3,30.34,NW,315,1.7,3.5,84,0.00,,,0.00,WUHU216HW,2013-03-07 12:22:00,
2013-03-07 06:27:00,31.5,27.3,30.34,NW,317,1.2,3.5,84,0.00,,,0.00,WUHU216HW,2013-03-07 12:27:00,
2013-03-07 06:32:00,31.5,27.3,30.34,WNW,293,1.6,3.0,84,0.00,,,0.00,WUHU216HW,2013-03-07 12:32:00,
2013-03-07 06:37:00,31.7,27.5,30.35,West,270,1.1,3.0,84,0.00,,,0.00,WUHU216HW,2013-03-07 12:37:00,
2013-03-07 06:42:00,31.7,27.5,30.35,WNW,293,1.9,2.2,84,0.00,,,0.00,WUHU216HW,2013-03-07 12:42:00,
2013-03-07 06:47:00,31.7,27.5,30.35,WNW,297,1.0,2.2,84,0.00,,,0.00,WUHU216HW,2013-03-07 12:47:00,
2013-03-07 06:52:00,31.9,27.6,30.35,WNW,293,0.5,2.2,84,0.00,,,0.00,WUHU216HW,2013-03-07 12:52:00,
2013-03-07 06:58:00,32.0,27.8,30.35,West,275,0.4,1.1,84,0.00,,,0.00,WUHU216HW,2013-03-07 12:58:00,
2013-03-07 07:03:00,32.0,27.6,30.36,WNW,285,0.8,2.4,83,0.00,,,0.00,WUHU216HW,2013-03-07 13:03:00,
2013-03-07 07:08:00,32.0,27.6,30.35,NW,308,1.9,4.1,83,0.00,,,0.00,WUHU216HW,2013-03-07 13:08:00,
2013-03-07 07:13:00,32.2,27.6,30.36,NW,315,1.3,4.1,83,0.00,,,0.00,WUHU216HW,2013-03-07 13:13:00,
2013-03-07 07:18:00,32.4,27.8,30.36,NW,319,1.0,2.6,83,0.00,,,0.00,WUHU216HW,2013-03-07 13:18:00,
2013-03-07 07:23:00,32.4,27.8,30.36,NNW,338,3.5,3.5,83,0.00,,,0.00,WUHU216HW,2013-03-07 13:23:00,
2013-03-07 07:28:00,32.6,28.0,30.36,NNW,338,1.6,3.5,83,0.00,,,0.00,WUHU216HW,2013-03-07 13:28:00,
2013-03-07 07:33:00,32.8,27.9,30.36,NW,305,0.8,3.5,82,0.00,,,0.00,WUHU216HW,2013-03-07 13:33:00,
2013-03-07 07:38:00,32.9,28.0,30.36,WNW,293,0.8,3.5,82,0.00,,,0.00,WUHU216HW,2013-03-07 13:38:00,
2013-03-07 07:43:00,33.3,28.1,30.36,NW,310,1.4,3.5,81,0.00,,,0.00,WUHU216HW,2013-03-07 13:43:00,
2013-03-07 07:48:00,33.5,28.3,30.37,NW,315,1.1,3.5,81,0.00,,,0.00,WUHU216HW,2013-03-07 13:48:00,
2013-03-07 07:53:00,33.8,28.5,30.37,West,270,1.3,1.3,81,0.00,,,0.00,WUHU216HW,2013-03-07 13:53:00,
2013-03-07 07:58:00,34.2,29.2,30.37,NNW,336,1.3,2.2,82,0.00,,,0.00,WUHU216HW,2013-03-07 13:58:00,
2013-03-07 08:03:00,34.4,29.1,30.37,NW,318,2.4,4.6,81,0.00,,,0.00,WUHU216HW,2013-03-07 14:03:00,
2013-03-07 08:08:00,34.6,29.3,30.37,West,270,1.6,4.6,81,0.00,,,0.00,WUHU216HW,2013-03-07 14:08:00,
2013-03-07 08:13:00,34.7,29.2,30.37,WSW,248,1.6,2.6,80,0.00,,,0.00,WUHU216HW,2013-03-07 14:13:00,
2013-03-07 08:18:00,34.9,29.3,30.38,NW,325,1.1,3.7,80,0.00,,,0.00,WUHU216HW,2013-03-07 14:18:00,
2013-03-07 08:23:00,34.9,29.0,30.38,NW,319,2.3,4.1,79,0.00,,,0.00,WUHU216HW,2013-03-07 14:23:00,
2013-03-07 08:28:00,35.1,29.2,30.38,WNW,299,2.2,4.1,79,0.00,,,0.00,WUHU216HW,2013-03-07 14:28:00,
2013-03-07 08:33:00,35.3,29.3,30.38,WNW,295,1.6,3.2,79,0.00,,,0.00,WUHU216HW,2013-03-07 14:33:00,
2013-03-07 08:38:00,35.3,29.1,30.38,NW,315,2.6,3.2,78,0.00,,,0.00,WUHU216HW,2013-03-07 14:38:00,
2013-03-07 08:43:00,35.1,28.9,30.38,North,0,1.9,5.4,78,0.00,,,0.00,WUHU216HW,2013-03-07 14:43:00,
2013-03-07 08:48:00,35.1,28.5,30.38,NW,315,3.2,6.1,77,0.00,,,0.00,WUHU216HW,2013-03-07 14:48:00,
2013-03-07 08:53:00,35.1,28.5,30.38,NW,306,2.0,6.1,77,0.00,,,0.00,WUHU216HW,2013-03-07 14:53:00,
2013-03-07 08:58:00,36.0,29.8,30.38,WNW,293,0.8,4.3,78,0.00,,,0.00,WUHU216HW,2013-03-07 14:58:00,
2013-03-07 09:03:00,37.3,30.4,30.38,NW,315,3.0,3.0,76,0.00,,,0.00,WUHU216HW,2013-03-07 15:03:00,
2013-03-07 09:08:00,38.2,31.6,30.38,NW,315,5.4,5.4,77,0.00,,,0.00,WUHU216HW,2013-03-07 15:08:00,
2013-03-07 09:14:00,38.2,31.0,30.38,NW,319,1.9,5.4,75,0.00,,,0.00,WUHU216HW,2013-03-07 15:14:00,
2013-03-07 09:19:00,38.7,31.2,30.38,WNW,293,1.3,3.0,74,0.00,,,0.00,WUHU216HW,2013-03-07 15:19:00,
2013-03-07 09:24:00,38.9,31.0,30.38,NNW,338,3.2,6.5,73,0.00,,,0.00,WUHU216HW,2013-03-07 15:24:00,
2013-03-07 09:29:00,38.3,29.8,30.38,NW,324,3.3,6.5,71,0.00,,,0.00,WUHU216HW,2013-03-07 15:29:00,
2013-03-07 09:34:00,38.2,30.2,30.38,North,358,2.4,4.6,73,0.00,,,0.00,WUHU216HW,2013-03-07 15:34:00,
2013-03-07 09:39:00,38.7,30.1,30.38,NW,315,4.8,5.2,71,0.00,,,0.00,WUHU216HW,2013-03-07 15:39:00,
2013-03-07 09:44:00,38.5,30.0,30.38,WNW,302,3.9,5.2,71,0.00,,,0.00,WUHU216HW,2013-03-07 15:44:00,
2013-03-07 09:49:00,39.1,30.4,30.38,NNW,338,3.2,4.8,71,0.00,,,0.00,WUHU216HW,2013-03-07 15:49:00,
2013-03-07 09:54:00,39.2,30.6,30.38,NW,316,1.2,4.8,71,0.00,,,0.00,WUHU216HW,2013-03-07 15:54:00,
2013-03-07 09:59:00,40.1,31.1,30.38,NW,322,3.7,4.6,70,0.00,,,0.00,WUHU216HW,2013-03-07 15:59:00,
2013-03-07 10:05:00,40.0,30.3,30.39,NW,315,1.7,4.6,68,0.00,,,0.00,WUHU216HW,2013-03-07 16:05:00,
2013-03-07 10:10:00,40.0,31.0,30.39,NW,315,1.9,4.1,70,0.00,,,0.00,WUHU216HW,2013-03-07 16:10:00,
2013-03-07 10:15:00,39.8,30.1,30.39,NW,317,2.9,5.2,68,0.00,,,0.00,WUHU216HW,2013-03-07 16:15:00,
2013-03-07 10:20:00,39.6,29.9,30.39,NNW,338,2.4,5.2,68,0.00,,,0.00,WUHU216HW,2013-03-07 16:20:00,
2013-03-07 10:25:00,39.6,30.3,30.39,NW,315,1.9,4.1,69,0.00,,,0.00,WUHU216HW,2013-03-07 16:25:00,
2013-03-07 10:30:00,39.6,29.4,30.40,NNW,338,3.0,5.9,67,0.00,,,0.00,WUHU216HW,2013-03-07 16:30:00,
2013-03-07 10:35:00,39.6,30.3,30.39,WNW,293,2.2,5.9,69,0.00,,,0.00,WUHU216HW,2013-03-07 16:35:00,
2013-03-07 10:40:00,40.7,31.3,30.40,NW,315,1.3,3.2,69,0.00,,,0.00,WUHU216HW,2013-03-07 16:40:00,
2013-03-07 10:45:00,41.0,30.9,30.39,WNW,293,3.0,4.3,67,0.00,,,0.00,WUHU216HW,2013-03-07 16:45:00,
2013-03-07 10:50:00,41.4,31.7,30.39,WNW,293,1.9,4.3,68,0.00,,,0.00,WUHU216HW,2013-03-07 16:50:00,
2013-03-07 10:55:00,41.6,30.7,30.40,NW,315,5.2,5.2,65,0.00,,,0.00,WUHU216HW,2013-03-07 16:55:00,
2013-03-07 11:00:00,41.2,31.1,30.39,NNW,332,1.8,5.2,67,0.00,,,0.00,WUHU216HW,2013-03-07 17:00:00,
2013-03-07 11:05:00,41.2,31.1,30.39,NNW,338,3.5,4.1,67,0.00,,,0.00,WUHU216HW,2013-03-07 17:05:00,
2013-03-07 11:10:00,40.9,30.0,30.39,NNW,340,3.1,8.0,65,0.00,,,0.00,WUHU216HW,2013-03-07 17:10:00,
2013-03-07 11:15:00,40.7,29.4,30.39,NW,324,1.5,8.0,64,0.00,,,0.00,WUHU216HW,2013-03-07 17:15:00,
2013-03-07 11:20:00,40.7,29.8,30.39,NW,324,2.8,4.3,65,0.00,,,0.00,WUHU216HW,2013-03-07 17:20:00,
2013-03-07 11:25:00,40.9,30.0,30.39,NNW,346,3.6,7.6,65,0.00,,,0.00,WUHU216HW,2013-03-07 17:25:00,
2013-03-07 11:30:00,40.7,29.8,30.38,NNW,339,3.4,7.6,65,0.00,,,0.00,WUHU216HW,2013-03-07 17:30:00,
2013-03-07 11:36:00,40.1,30.0,30.38,NW,315,2.6,5.6,67,0.00,,,0.00,WUHU216HW,2013-03-07 17:36:00,
2013-03-07 11:41:00,41.0,30.9,30.38,NW,315,3.2,4.3,67,0.00,,,0.00,WUHU216HW,2013-03-07 17:41:00,
2013-03-07 11:46:00,41.8,30.9,30.38,NNW,333,1.9,4.1,65,0.00,,,0.00,WUHU216HW,2013-03-07 17:46:00,
2013-03-07 11:51:00,41.6,30.2,30.38,NW,316,3.4,4.6,64,0.00,,,0.00,WUHU216HW,2013-03-07 17:51:00,
2013-03-07 11:56:00,41.4,30.2,30.38,North,0,4.6,5.9,64,0.00,,,0.00,WUHU216HW,2013-03-07 17:56:00,
2013-03-07 12:01:00,41.6,30.2,30.38,NNW,346,4.4,5.9,64,0.00,,,0.00,WUHU216HW,2013-03-07 18:01:00,
2013-03-07 12:06:00,41.4,30.2,30.38,North,0,2.4,5.6,64,0.00,,,0.00,WUHU216HW,2013-03-07 18:06:00,
2013-03-07 12:11:00,41.4,30.2,30.38,NNW,338,3.2,4.6,64,0.00,,,0.00,WUHU216HW,2013-03-07 18:11:00,
2013-03-07 12:16:00,41.4,30.5,30.38,NNW,340,2.5,4.6,65,0.00,,,0.00,WUHU216HW,2013-03-07 18:16:00,
2013-03-07 12:21:00,41.4,30.2,30.39,NW,315,4.8,4.8,64,0.00,,,0.00,WUHU216HW,2013-03-07 18:21:00,
2013-03-07 12:26:00,41.0,29.8,30.39,NNW,338,5.6,5.6,64,0.00,,,0.00,WUHU216HW,2013-03-07 18:26:00,
2013-03-07 12:31:00,41.0,30.2,30.38,NW,315,4.1,5.6,65,0.00,,,0.00,WUHU216HW,2013-03-07 18:31:00,
2013-03-07 12:36:00,41.4,29.7,30.38,North,349,3.7,7.0,63,0.00,,,0.00,WUHU216HW,2013-03-07 18:36:00,
2013-03-07 12:41:00,40.7,29.1,30.39,NNW,333,3.4,7.0,63,0.00,,,0.00,WUHU216HW,2013-03-07 18:41:00,
2013-03-07 12:46:00,40.1,29.3,30.38,NNE,23,4.6,6.5,65,0.00,,,0.00,WUHU216HW,2013-03-07 18:46:00,
2013-03-07 12:51:00,40.3,29.8,30.38,NNE,18,1.8,6.1,66,0.00,,,0.00,WUHU216HW,2013-03-07 18:51:00,
2013-03-07 12:56:00,40.5,29.6,30.38,North,352,4.2,5.9,65,0.00,,,0.00,WUHU216HW,2013-03-07 18:56:00,
2013-03-07 13:01:00,40.1,29.3,30.38,North,3,3.8,6.5,65,0.00,,,0.00,WUHU216HW,2013-03-07 19:01:00,
2013-03-07 13:06:00,40.3,29.4,30.38,NNW,338,3.7,6.5,65,0.00,,,0.00,WUHU216HW,2013-03-07 19:06:00,
2013-03-07 13:11:00,40.5,29.6,30.38,North,4,5.2,6.5,65,0.00,,,0.00,WUHU216HW,2013-03-07 19:11:00,
2013-03-07 13:16:00,40.0,29.1,30.38,NE,45,4.1,6.5,65,0.00,,,0.00,WUHU216HW,2013-03-07 19:16:00,
2013-03-07 13:22:00,39.6,28.7,30.37,NW,325,3.1,5.4,65,0.00,,,0.00,WUHU216HW,2013-03-07 19:22:00,
2013-03-07 13:28:00,40.0,29.8,30.38,NNE,23,7.8,7.8,67,0.00,,,0.00,WUHU216HW,2013-03-07 19:28:00,
2013-03-07 13:33:00,40.1,29.3,30.37,NNW,338,4.1,7.8,65,0.00,,,0.00,WUHU216HW,2013-03-07 19:33:00,
2013-03-07 13:38:00,40.1,28.9,30.37,NW,315,2.2,4.8,64,0.00,,,0.00,WUHU216HW,2013-03-07 19:38:00,
2013-03-07 13:43:00,40.1,28.9,30.37,NNW,344,2.4,4.8,64,0.00,,,0.00,WUHU216HW,2013-03-07 19:43:00,
2013-03-07 13:48:00,40.0,28.7,30.38,NW,326,2.6,4.6,64,0.00,,,0.00,WUHU216HW,2013-03-07 19:48:00,
2013-03-07 13:53:00,40.0,29.4,30.38,NNW,344,1.6,3.7,66,0.00,,,0.00,WUHU216HW,2013-03-07 19:53:00,
2013-03-07 13:58:00,40.0,29.4,30.38,NNE,16,2.9,5.6,66,0.00,,,0.00,WUHU216HW,2013-03-07 19:58:00,
2013-03-07 14:03:00,40.0,29.1,30.38,NNW,331,3.7,5.6,65,0.00,,,0.00,WUHU216HW,2013-03-07 20:03:00,
2013-03-07 14:08:00,40.1,29.3,30.37,NNW,338,4.3,6.1,65,0.00,,,0.00,WUHU216HW,2013-03-07 20:08:00,
2013-03-07 14:13:00,39.8,28.2,30.37,North,0,4.1,6.1,63,0.00,,,0.00,WUHU216HW,2013-03-07 20:13:00,
2013-03-07 14:18:00,40.0,28.7,30.37,West,270,1.6,6.1,64,0.00,,,0.00,WUHU216HW,2013-03-07 20:18:00,
2013-03-07 14:23:00,40.3,29.1,30.36,NNW,338,5.4,5.4,64,0.00,,,0.00,WUHU216HW,2013-03-07 20:23:00,
2013-03-07 14:28:00,40.5,28.4,30.36,North,0,4.6,5.4,62,0.00,,,0.00,WUHU216HW,2013-03-07 20:28:00,
2013-03-07 14:33:00,40.5,28.4,30.36,NNW,338,2.2,4.6,62,0.00,,,0.00,WUHU216HW,2013-03-07 20:33:00,
2013-03-07 14:38:00,41.0,29.4,30.37,ENE,66,0.4,4.1,63,0.00,,,0.00,WUHU216HW,2013-03-07 20:38:00,
2013-03-07 14:43:00,41.4,29.3,30.37,WNW,293,2.2,3.0,62,0.00,,,0.00,WUHU216HW,2013-03-07 20:43:00,
2013-03-07 14:48:00,41.0,28.6,30.37,North,0,4.1,5.2,61,0.00,,,0.00,WUHU216HW,2013-03-07 20:48:00,
2013-03-07 14:53:00,40.9,28.8,30.37,NNW,343,2.2,5.2,62,0.00,,,0.00,WUHU216HW,2013-03-07 20:53:00,
2013-03-07 14:58:00,40.9,28.4,30.37,NE,45,2.2,4.8,61,0.00,,,0.00,WUHU216HW,2013-03-07 20:58:00,
2013-03-07 15:03:00,41.0,28.6,30.37,NNE,20,0.8,6.1,61,0.00,,,0.00,WUHU216HW,2013-03-07 21:03:00,
2013-03-07 15:08:00,41.0,27.8,30.37,NE,34,2.8,6.1,59,0.00,,,0.00,WUHU216HW,2013-03-07 21:08:00,
2013-03-07 15:13:00,40.5,27.3,30.37,NE,42,2.0,4.3,59,0.00,,,0.00,WUHU216HW,2013-03-07 21:13:00,
2013-03-07 15:18:00,40.5,27.7,30.37,NNW,338,3.0,4.1,60,0.00,,,0.00,WUHU216HW,2013-03-07 21:18:00,
2013-03-07 15:23:00,40.3,27.9,30.38,NNE,23,5.2,5.2,61,0.00,,,0.00,WUHU216HW,2013-03-07 21:23:00,
2013-03-07 15:28:00,39.6,27.2,30.38,North,9,2.5,5.2,61,0.00,,,0.00,WUHU216HW,2013-03-07 21:28:00,
2013-03-07 15:33:00,39.8,27.7,30.38,North,0,2.2,5.2,62,0.00,,,0.00,WUHU216HW,2013-03-07 21:33:00,
2013-03-07 15:38:00,40.0,27.9,30.38,North,350,1.3,4.1,62,0.00,,,0.00,WUHU216HW,2013-03-07 21:38:00,
2013-03-07 15:43:00,40.3,27.9,30.38,NNW,338,3.0,4.1,61,0.00,,,0.00,WUHU216HW,2013-03-07 21:43:00,
2013-03-07 15:48:00,40.1,27.7,30.38,NE,45,1.3,4.1,61,0.00,,,0.00,WUHU216HW,2013-03-07 21:48:00,
2013-03-07 15:53:00,40.0,27.5,30.38,NNW,341,1.0,3.0,61,0.00,,,0.00,WUHU216HW,2013-03-07 21:53:00,
2013-03-07 15:58:00,39.6,26.8,30.38,North,11,2.3,4.1,60,0.00,,,0.00,WUHU216HW,2013-03-07 21:58:00,
2013-03-07 16:03:00,39.4,27.0,30.38,NNE,23,2.3,5.2,61,0.00,,,0.00,WUHU216HW,2013-03-07 22:03:00,
2013-03-07 16:08:00,39.2,27.2,30.38,NNW,338,2.6,5.2,62,0.00,,,0.00,WUHU216HW,2013-03-07 22:08:00,
2013-03-07 16:13:00,38.9,26.9,30.38,NNW,331,1.1,3.5,62,0.00,,,0.00,WUHU216HW,2013-03-07 22:13:00,
2013-03-07 16:18:00,38.3,26.8,30.38,NNW,340,1.5,3.7,63,0.00,,,0.00,WUHU216HW,2013-03-07 22:18:00,
2013-03-07 16:24:00,38.2,26.7,30.38,NNE,23,4.3,4.3,63,0.00,,,0.00,WUHU216HW,2013-03-07 22:24:00,
2013-03-07 16:29:00,37.8,26.3,30.38,North,5,1.3,4.3,63,0.00,,,0.00,WUHU216HW,2013-03-07 22:29:00,
2013-03-07 16:34:00,37.6,25.7,30.38,North,355,2.0,4.6,62,0.00,,,0.00,WUHU216HW,2013-03-07 22:34:00,
2013-03-07 16:39:00,37.4,25.6,30.38,North,0,1.6,4.6,62,0.00,,,0.00,WUHU216HW,2013-03-07 22:39:00,
2013-03-07 16:44:00,37.1,25.7,30.38,NNE,22,2.5,5.4,63,0.00,,,0.00,WUHU216HW,2013-03-07 22:44:00,
2013-03-07 16:49:00,37.1,26.0,30.38,North,0,1.3,5.6,64,0.00,,,0.00,WUHU216HW,2013-03-07 22:49:00,
2013-03-07 16:54:00,36.9,25.8,30.39,North,1,3.7,5.6,64,0.00,,,0.00,WUHU216HW,2013-03-07 22:54:00,
2013-03-07 16:59:00,36.7,25.7,30.39,NNE,20,1.3,4.8,64,0.00,,,0.00,WUHU216HW,2013-03-07 22:59:00,
2013-03-07 17:04:00,36.4,25.8,30.39,NW,315,2.2,5.4,65,0.00,,,0.00,WUHU216HW,2013-03-07 23:04:00,
2013-03-07 17:09:00,36.0,25.8,30.38,NNE,32,1.7,5.4,66,0.00,,,0.00,WUHU216HW,2013-03-07 23:09:00,
2013-03-07 17:14:00,36.2,26.3,30.39,North,8,1.8,3.0,67,0.00,,,0.00,WUHU216HW,2013-03-07 23:14:00,
2013-03-07 17:19:00,36.0,26.1,30.39,ENE,71,0.7,3.0,67,0.00,,,0.00,WUHU216HW,2013-03-07 23:19:00,
2013-03-07 17:24:00,36.0,26.5,30.39,NNE,23,0.8,3.0,68,0.00,,,0.00,WUHU216HW,2013-03-07 23:24:00,
2013-03-07 17:29:00,35.6,25.7,30.39,North,0,1.0,1.9,67,0.00,,,0.00,WUHU216HW,2013-03-07 23:29:00,
2013-03-07 17:34:00,35.6,25.7,30.39,ENE,61,1.3,2.4,67,0.00,,,0.00,WUHU216HW,2013-03-07 23:34:00,
2013-03-07 17:39:00,35.3,25.4,30.39,NNE,23,2.2,2.4,67,0.00,,,0.00,WUHU216HW,2013-03-07 23:39:00,
2013-03-07 17:44:00,34.9,25.4,30.39,North,0,1.3,2.4,68,0.00,,,0.00,WUHU216HW,2013-03-07 23:44:00,
2013-03-07 17:49:00,34.9,25.4,30.39,North,0,0.4,2.6,68,0.00,,,0.00,WUHU216HW,2013-03-07 23:49:00,
2013-03-07 17:54:00,34.7,25.6,30.38,NNE,23,1.1,2.6,69,0.00,,,0.00,WUHU216HW,2013-03-07 23:54:00,
2013-03-07 17:59:00,34.6,25.4,30.38,NNE,13,1.4,2.2,69,0.00,,,0.00,WUHU216HW,2013-03-07 23:59:00,
2013-03-07 18:04:00,34.4,25.2,30.38,NNE,31,0.9,2.2,69,0.00,,,0.00,WUHU216HW,2013-03-08 00:04:00,
2013-03-07 18:09:00,34.2,25.0,30.38,North,0,0.2,1.3,69,0.00,,,0.00,WUHU216HW,2013-03-08 00:09:00,
2013-03-07 18:14:00,34.2,25.4,30.39,North,0,0.5,0.5,70,0.00,,,0.00,WUHU216HW,2013-03-08 00:14:00,
2013-03-07 18:19:00,34.2,25.4,30.39,North,0,0.5,0.5,70,0.00,,,0.00,WUHU216HW,2013-03-08 00:19:00,
2013-03-07 18:24:00,34.0,24.8,30.39,East,90,1.1,1.1,69,0.00,,,0.00,WUHU216HW,2013-03-08 00:24:00,
2013-03-07 18:29:00,33.8,25.0,30.39,ENE,68,1.3,1.3,70,0.00,,,0.00,WUHU216HW,2013-03-08 00:29:00,
2013-03-07 18:34:00,33.8,25.0,30.39,East,86,0.7,1.3,70,0.00,,,0.00,WUHU216HW,2013-03-08 00:34:00,
2013-03-07 18:39:00,33.8,25.0,30.39,North,0,0.8,1.3,70,0.00,,,0.00,WUHU216HW,2013-03-08 00:39:00,
2013-03-07 18:44:00,33.7,24.8,30.40,NE,45,0.2,1.6,70,0.00,,,0.00,WUHU216HW,2013-03-08 00:44:00,
2013-03-07 18:49:00,33.5,24.7,30.40,NE,45,0.3,1.6,70,0.00,,,0.00,WUHU216HW,2013-03-08 00:49:00,
2013-03-07 18:54:00,33.5,24.3,30.40,NE,45,0.6,1.1,69,0.00,,,0.00,WUHU216HW,2013-03-08 00:54:00,
2013-03-07 18:59:00,33.5,24.7,30.40,NE,45,0.0,1.1,70,0.00,,,0.00,WUHU216HW,2013-03-08 00:59:00,
2013-03-07 19:04:00,33.3,24.2,30.40,NE,45,0.5,0.5,69,0.00,,,0.00,WUHU216HW,2013-03-08 01:04:00,
2013-03-07 19:09:00,33.3,24.6,30.40,NE,45,0.4,0.5,70,0.00,,,0.00,WUHU216HW,2013-03-08 01:09:00,
2013-03-07 19:14:00,33.1,24.4,30.40,NE,45,0.4,0.5,70,0.00,,,0.00,WUHU216HW,2013-03-08 01:14:00,
2013-03-07 19:19:00,32.9,24.2,30.40,NE,45,0.2,0.5,70,0.00,,,0.00,WUHU216HW,2013-03-08 01:19:00,
2013-03-07 19:24:00,32.9,24.2,30.40,NE,45,0.2,0.2,70,0.00,,,0.00,WUHU216HW,2013-03-08 01:24:00,
2013-03-07 19:29:00,32.8,24.0,30.40,NE,45,0.0,0.2,70,0.00,,,0.00,WUHU216HW,2013-03-08 01:29:00,
2013-03-07 19:34:00,32.8,24.0,30.40,NE,45,0.0,0.0,70,0.00,,,0.00,WUHU216HW,2013-03-08 01:34:00,
2013-03-07 19:39:00,32.8,24.4,30.39,NE,45,0.0,0.5,71,0.00,,,0.00,WUHU216HW,2013-03-08 01:39:00,
2013-03-07 19:44:00,32.6,24.2,30.40,NE,45,0.0,0.5,71,0.00,,,0.00,WUHU216HW,2013-03-08 01:44:00,
2013-03-07 19:49:00,32.4,24.0,30.40,NE,45,0.0,0.0,71,0.00,,,0.00,WUHU216HW,2013-03-08 01:49:00,
2013-03-07 19:54:00,32.4,24.4,30.40,NE,45,0.0,0.5,72,0.00,,,0.00,WUHU216HW,2013-03-08 01:54:00,
2013-03-07 19:59:00,32.2,24.2,30.39,NE,45,0.0,0.5,72,0.00,,,0.00,WUHU216HW,2013-03-08 01:59:00,
2013-03-07 20:04:00,32.2,24.2,30.40,NE,45,0.0,0.2,72,0.00,,,0.00,WUHU216HW,2013-03-08 02:04:00,
2013-03-07 20:09:00,32.0,24.0,30.40,NE,45,0.0,0.0,72,0.00,,,0.00,WUHU216HW,2013-03-08 02:09:00,
2013-03-07 20:14:00,31.9,23.9,30.40,NE,45,0.0,0.0,72,0.00,,,0.00,WUHU216HW,2013-03-08 02:14:00,
2013-03-07 20:19:00,31.7,24.0,30.40,NE,45,0.0,0.0,73,0.00,,,0.00,WUHU216HW,2013-03-08 02:19:00,
2013-03-07 20:24:00,31.5,23.9,30.40,NE,45,0.0,0.0,73,0.00,,,0.00,WUHU216HW,2013-03-08 02:24:00,
2013-03-07 20:29:00,31.3,23.7,30.40,NE,45,0.0,0.0,73,0.00,,,0.00,WUHU216HW,2013-03-08 02:29:00,
2013-03-07 20:34:00,31.3,23.7,30.39,NE,45,0.0,0.0,73,0.00,,,0.00,WUHU216HW,2013-03-08 02:34:00,
2013-03-07 20:39:00,31.3,23.9,30.40,NE,45,0.0,0.0,74,0.00,,,0.00,WUHU216HW,2013-03-08 02:39:00,
2013-03-07 20:44:00,31.1,23.8,30.39,NE,45,0.0,0.0,74,0.00,,,0.00,WUHU216HW,2013-03-08 02:44:00,
2013-03-07 20:49:00,31.0,23.6,30.40,NE,45,0.0,0.0,74,0.00,,,0.00,WUHU216HW,2013-03-08 02:49:00,
2013-03-07 20:54:00,30.8,23.4,30.40,NE,45,0.0,0.0,74,0.00,,,0.00,WUHU216HW,2013-03-08 02:54:00,
2013-03-07 20:59:00,30.8,23.8,30.40,NE,45,0.0,0.0,75,0.00,,,0.00,WUHU216HW,2013-03-08 02:59:00,
2013-03-07 21:04:00,30.6,23.6,30.40,NE,45,0.0,0.0,75,0.00,,,0.00,WUHU216HW,2013-03-08 03:04:00,
2013-03-07 21:09:00,30.6,24.0,30.40,NE,45,0.0,0.0,76,0.00,,,0.00,WUHU216HW,2013-03-08 03:09:00,
2013-03-07 21:14:00,30.4,23.8,30.40,NE,45,0.0,0.0,76,0.00,,,0.00,WUHU216HW,2013-03-08 03:14:00,
2013-03-07 21:19:00,30.2,23.6,30.40,NE,45,0.0,0.0,76,0.00,,,0.00,WUHU216HW,2013-03-08 03:19:00,
2013-03-07 21:24:00,30.1,23.4,30.40,NE,45,0.0,0.0,76,0.00,,,0.00,WUHU216HW,2013-03-08 03:24:00,
2013-03-07 21:29:00,29.9,23.2,30.40,NE,45,0.0,0.0,76,0.00,,,0.00,WUHU216HW,2013-03-08 03:29:00,
2013-03-07 21:34:00,29.9,23.2,30.40,NE,45,0.0,0.0,76,0.00,,,0.00,WUHU216HW,2013-03-08 03:34:00,
2013-03-07 21:39:00,29.9,23.2,30.40,NE,45,0.0,0.0,76,0.00,,,0.00,WUHU216HW,2013-03-08 03:39:00,
2013-03-07 21:44:00,29.7,23.1,30.40,NE,45,0.0,0.0,76,0.00,,,0.00,WUHU216HW,2013-03-08 03:44:00,
2013-03-07 21:49:00,29.5,22.9,30.41,NE,45,0.0,0.0,76,0.00,,,0.00,WUHU216HW,2013-03-08 03:49:00,
2013-03-07 21:54:00,29.3,22.7,30.41,NE,45,0.0,0.0,76,0.00,,,0.00,WUHU216HW,2013-03-08 03:54:00,
2013-03-07 21:59:00,29.2,22.9,30.41,NE,45,0.0,0.0,77,0.00,,,0.00,WUHU216HW,2013-03-08 03:59:00,
2013-03-07 22:04:00,29.3,23.0,30.41,NE,45,0.0,0.0,77,0.00,,,0.00,WUHU216HW,2013-03-08 04:04:00,
2013-03-07 22:09:00,29.3,23.3,30.41,NNE,23,0.5,0.5,78,0.00,,,0.00,WUHU216HW,2013-03-08 04:09:00,
2013-03-07 22:14:00,29.7,23.9,30.41,NNE,23,0.5,0.5,79,0.00,,,0.00,WUHU216HW,2013-03-08 04:14:00,
2013-03-07 22:19:00,29.9,24.1,30.41,NNE,23,0.0,0.5,79,0.00,,,0.00,WUHU216HW,2013-03-08 04:19:00,
2013-03-07 22:24:00,29.9,24.1,30.41,North,0,1.3,1.3,79,0.00,,,0.00,WUHU216HW,2013-03-08 04:24:00,
2013-03-07 22:29:00,29.9,24.1,30.41,North,0,0.0,1.3,79,0.00,,,0.00,WUHU216HW,2013-03-08 04:29:00,
2013-03-07 22:34:00,29.9,24.1,30.41,North,0,0.5,1.3,79,0.00,,,0.00,WUHU216HW,2013-03-08 04:34:00,
2013-03-07 22:39:00,29.9,24.1,30.41,North,0,0.0,0.5,79,0.00,,,0.00,WUHU216HW,2013-03-08 04:39:00,
2013-03-07 22:44:00,29.7,23.9,30.41,North,0,0.0,0.2,79,0.00,,,0.00,WUHU216HW,2013-03-08 04:44:00,
2013-03-07 22:49:00,29.5,23.8,30.41,North,0,0.0,0.0,79,0.00,,,0.00,WUHU216HW,2013-03-08 04:49:00,
2013-03-07 22:54:00,29.5,24.1,30.41,NNE,23,0.4,0.5,80,0.00,,,0.00,WUHU216HW,2013-03-08 04:54:00,
2013-03-07 22:59:00,29.7,24.6,30.41,NNE,23,0.5,0.5,81,0.00,,,0.00,WUHU216HW,2013-03-08 04:59:00,
2013-03-07 23:00:00,29.7,24.6,30.41,NNE,23,0.5,0.5,81,0.00,,,0.00,WUHU216HW,2013-03-08 05:00:00,
2013-03-07 23:01:00,29.7,24.3,30.41,NNE,23,0.3,0.5,80,0.00,,,0.00,WUHU216HW,2013-03-08 05:01:00,
2013-03-07 23:06:00,29.7,24.6,30.41,ENE,68,0.5,0.8,81,0.00,,,0.00,WUHU216HW,2013-03-08 05:06:00,
2013-03-07 23:11:00,29.7,24.8,30.41,East,90,0.5,1.1,82,0.00,,,0.00,WUHU216HW,2013-03-08 05:11:00,
2013-03-07 23:16:00,29.9,25.0,30.41,ENE,68,0.5,1.1,82,0.00,,,0.00,WUHU216HW,2013-03-08 05:16:00,
2013-03-07 23:21:00,29.9,25.0,30.41,ENE,68,0.5,0.5,82,0.00,,,0.00,WUHU216HW,2013-03-08 05:21:00,
2013-03-07 23:26:00,29.7,25.2,30.41,ENE,68,0.5,1.3,83,0.00,,,0.00,WUHU216HW,2013-03-08 05:26:00,
2013-03-07 23:31:00,29.7,25.2,30.41,ENE,68,0.6,1.3,83,0.00,,,0.00,WUHU216HW,2013-03-08 05:31:00,
2013-03-07 23:36:00,29.7,25.2,30.41,NNE,23,0.7,1.6,83,0.00,,,0.00,WUHU216HW,2013-03-08 05:36:00,
2013-03-07 23:41:00,29.5,25.0,30.41,ENE,68,0.5,1.6,83,0.00,,,0.00,WUHU216HW,2013-03-08 05:41:00,
2013-03-07 23:46:00,29.5,25.0,30.41,ENE,60,0.9,1.3,83,0.00,,,0.00,WUHU216HW,2013-03-08 05:46:00,
2013-03-07 23:51:00,29.3,24.9,30.41,NE,45,0.5,1.3,83,0.00,,,0.00,WUHU216HW,2013-03-08 05:51:00,
2013-03-07 23:56:00,29.2,24.7,30.41,East,93,0.8,1.3,83,0.00,,,0.00,WUHU216HW,2013-03-08 05:56:00,